Overview Statistics Trail Chart Weather Telemetry Raw packets
 

This is the latest recevied weather packets stored in our database for station/object K5OLV. If no packets are shown the sender has not sent any weather packets the latest 10 day(s).

<< 68 69 70 71 72 73 74 >>
Time Temp. Humidity Pressure Rain* Wind** Luminosity Snow
1788135115 24.44° C 88% 1017.4 hPa 0 mm - 1 W/m² -
1788134812 25° C 87% 1017.5 hPa 0 mm - 3 W/m² -
1788134506 25° C 86% 1017.8 hPa 0 mm - 6 W/m² -
1788134205 25° C 85% 1017.8 hPa 0 mm - 8 W/m² -
1788133900 25° C 86% 1017.7 hPa 0 mm - 12 W/m² -
1788133595 25.56° C 87% 1017.9 hPa 0 mm - 15 W/m² -
1788133291 25.56° C 87% 1018 hPa 0 mm - 19 W/m² -
1788132987 25.56° C 87% 1017.8 hPa 0 mm - 22 W/m² -
1788132682 26.11° C 86% 1017.9 hPa 0 mm - 25 W/m² -
1788132378 26.11° C 85% 1017.8 hPa 0 mm - 26 W/m² -
1788132074 26.11° C 85% 1017.5 hPa 0 mm - 29 W/m² -
1788131769 26.67° C 84% 1017.8 hPa 0 mm - 30 W/m² -
1788131471 26.67° C 80% 1017.8 hPa 0 mm - 33 W/m² -
1788131164 26.67° C 82% 1017.9 hPa 0 mm - 35 W/m² -
1788130858 27.22° C 80% 1018 hPa 0 mm - 38 W/m² -
1788130553 27.78° C 79% 1018 hPa 0 mm - 39 W/m² -
1788130248 27.78° C 75% 1017.8 hPa 0 mm - 44 W/m² -
1788129946 27.78° C 71% 1017.5 hPa 0 mm - 59 W/m² -
1788129643 27.78° C 76% 1017.5 hPa 0 mm - 123 W/m² -
1788129340 28.33° C 71% 1017.8 hPa 0 mm - 78 W/m² -
1788129040 28.33° C 72% 1017.5 hPa 0 mm - 82 W/m² -
1788128734 28.89° C 69% 1017.5 hPa 0 mm - 83 W/m² -
1788128430 28.89° C 70% 1017.7 hPa 0 mm - 59 W/m² -
1788128126 28.89° C 67% 1017.7 hPa 0 mm - 107 W/m² -
1788127822 29.44° C 70% 1017.8 hPa 0 mm - 115 W/m² -

* Rain latest hour (hover to see other rain measurements)
** Current wind speed in m/s (hover to see current wind gust speed)